Regional Weather Roundup
Issued by NWS

Home | Current Version | Previous Version | Text Only | Print | Product List | Glossary On
Versions: 1 2 3 4 5 6 7 8 9 10 11 12 13 14 15 16 17 18 19 20 21 22 23 24 25 26 27 28 29 30 31 32 33 34 35 36 37 38 39 40 41 42 43 44 45 46 47 48 49 50
000
ASUS43 KLSX 251607
RWRMO

WEATHER SUMMARY FOR MISSOURI
NATIONAL WEATHER SERVICE SPRINGFIELD MO
1000 AM CST TUE NOV 25 2014

NOTE: "FAIR" INDICATES FEW OR NO CLOUDS BELOW 12,000 FEET WITH NO
       SIGNIFICANT WEATHER AND/OR OBSTRUCTIONS TO VISIBILITY.
       CURRENT SKY AND/OR WEATHER CONDITIONS ARE NOT AVAILABLE FOR
       CHILLICOTHE AND FARMINGTON.

MOZ001>031-035>038-043-044-053-054-251700-
...NORTHERN AND WESTERN MISSOURI...

CITY           SKY/WX    TMP DP  RH WIND       PRES   REMARKS
KANSAS CTY INT SUNNY     29  13  51 W8        30.21S WCI  21
KANSAS C DTWN  SUNNY     31  11  43 VRB3      30.23S
LEE`S SUMMIT   SUNNY     30  10  43 W8        30.22R WCI  22
ST JOSEPH      SUNNY     29  12  49 W7        30.22R WCI  22
CHILLICOTHE      N/A     29  13  51 VRB3      30.22R
KIRKSVILLE     SUNNY     26  17  68 W3        30.18R

$$
MOZ066>068-077>081-088>096-101>105-251700-
...SOUTHWEST MISSOURI...

CITY           SKY/WX    TMP DP  RH WIND       PRES   REMARKS
SPRINGFIELD    SUNNY     33  15  47 NW6       30.23R WCI  28
JOPLIN         SUNNY     33  15  47 NW6       30.27S WCI  28

$$
MOZ032>034-039>042-045>050-055>058-069>072-251700-
...CENTRAL MISSOURI...

CITY           SKY/WX    TMP DP  RH WIND       PRES   REMARKS
COLUMBIA       SUNNY     30  19  63 W7        30.21R WCI  23
JEFFERSON CITY SUNNY     30  18  60 VRB6      30.24S WCI  24
ROLLA          SUNNY     29  18  63 W10       30.19R WCI  20
SEDALIA        SUNNY     30  14  51 W7        30.23R WCI  23
WHITEMAN AFB   FAIR      30  12  46 W6        30.22R WCI  24
WARRENSBURG    SUNNY     32  14  47 SW3       30.23R
OSAGE BEACH    SUNNY     34  16  47 W7        30.23R WCI  28

$$
MOZ051-052-059>065-251700-
...EAST CENTRAL MISSOURI...

CITY           SKY/WX    TMP DP  RH WIND       PRES   REMARKS
ST LOUIS INTL  PTSUNNY   34  21  59 W12       30.21R WCI  25
SPIRIT OF STL  MOSUNNY   32  21  64 W7        30.22R WCI  26
ST CHARLES     PTSUNNY   32  21  64 W9        30.22R WCI  24

$$
MOZ072>076-082>087-097>100-106>115-251700-
...SOUTH CENTRAL AND SOUTHEAST MISSOURI...

CITY           SKY/WX    TMP DP  RH WIND       PRES   REMARKS
CAPE GIRARDEAU SUNNY     37  25  61 NW12      30.25R WCI  29
FARMINGTON     SUNNY     32  21  64 W8        30.22R WCI  25
POPLAR BLUFF   SUNNY     37  20  50 NW12      30.24R WCI  29
WEST PLAINS    SUNNY     35  18  49 N5        30.24R

$$


USA.gov is the U.S. government's official web portal to all federal, state and local government web resources and services.